Other Public Products
Issued by NWS Charleston, SC

Current Version | Previous Version | Graphics & Text | Print | Product List | Glossary On
Versions: 1 2 3 4 5 6 7 8 9 10 11 12 13 14 15 16 17 18 19 20 21 22 23 24 25 26 27 28 29 30 31 32 33 34 35 36 37 38 39 40 41 42 43 44 45 46 47 48 49 50
131 FPUS82 KCHS 250127 OPUCHS TEST...KCHS/KSAV Gateway Observations...TEST National Weather Service Charleston SC 900 PM EDT MON JUL 24 2017 NOTE: "fair" indicates few or no clouds below 12,000 feet with no significant weather and/or obstructions to visibility. SCZ050-WAZ558-NCZ071-TXZ119-213-PAZ071-DCZ001-FLZ074-172-MI076- NYZ176-178-MAZ016-IL014-TNZ027-NJZ106-GAZ044-MD014-250200- ...Gateway Observations for Charleston International... CITY SKY/WX TMP DP RH WIND PRES REMARKS Chas Airport TSTM 73 70 90 S12 30.02S Seattle MOSUNNY 81 54 39 NW9 29.94F Charlotte CLOUDY 82 69 64 SW5 29.97R Dallas DFW PTCLDY 88 76 67 SE13 29.92S HX 99 Dallas Love PTCLDY 87 75 67 SE14 29.94R HX 96 Philladelphia TSTM 71 69 93 E9 29.90R FOG Wash National MOCLDY 85 75 72 S8 29.82R HX 93 Baltimore TSTM 77 74 90 NW22G31 29.85R Miami MOCLDY 86 76 71 SE8 30.07R HX 96 Detroit PTCLDY 70 48 45 N12 30.06R Newark CLOUDY 67 60 78 E8 29.88S Laguardia LGT RAIN 67 61 81 NE13 29.88R J F K LGT RAIN 65 62 90 E7 29.90R Boston Logan LGT RAIN 58 58 100 N13 29.93R FOG Ft. Lauderdale MOCLDY 85 77 77 SE9 30.06R HX 95 Chicago O`Hare MOCLDY 69 59 70 NE10 30.08R Chicago Midway MOCLDY 70 59 68 NE7 30.07S Houston Bush MOCLDY 88 70 55 S10 29.96R HX 93 Houston Hobby CLOUDY 88 71 57 S10 29.97S HX 94 Nashville MOCLDY 88 71 57 NE6 29.97R HX 94 Atlanta CLOUDY 76 72 87 SW7 30.01R $$ GAZ044-118-TXZ119-213-NCZ071-DCZ001-MDZ014-506-PAZ021-071-NJZ106- NYZ176-178-MAZ106-OHZ011-021-055-MIZ076-KYZ091-ILZ014-INZ047- MNZ060-ONZ431-250200- ...Gateway Observations for Savannah International... CITY SKY/WX TMP DP RH WIND PRES REMARKS Savannah Arpt TSTM 77 74 90 SE8 30.02R Atlanta CLOUDY 76 72 87 SW7 30.01R Charlotte CLOUDY 82 69 64 SW5 29.97R Dallas DFW PTCLDY 88 76 67 SE13 29.92S HX 99 Houston Bush MOCLDY 88 70 55 S10 29.96R HX 93 Wash National MOCLDY 85 75 72 S8 29.82R HX 93 Wash Dulles MOCLDY 81 72 74 SW5 29.84R Baltimore TSTM 77 74 90 NW22G31 29.85R Philadelphia TSTM 71 69 93 E9 29.90R FOG Newark CLOUDY 67 60 78 E8 29.88S Laguardia LGT RAIN 67 61 81 NE13 29.88R J F K LGT RAIN 65 62 90 E7 29.90R Boston LGT RAIN 58 58 100 N13 29.93R FOG Pittsburg MOCLDY 68 59 73 NW8 29.98R Akron MOCLDY 67 55 65 N12 30.02R Cleveland PTCLDY 69 55 60 N14G22 30.05R Cincinnati PTCLDY 76 67 73 N10 30.01R Columbus CLEAR 69 58 69 N10 30.02R Detroit PTCLDY 70 48 45 N12 30.06R Chicago O`Hare MOCLDY 69 59 70 NE10 30.08R Minneapolis MOCLDY 75 60 59 SE8 30.04R Indianapolis PTCLDY 76 63 64 NE12 30.01R Toronto Canada CLOUDY 63 55 77 N15 29.93R $$

USA.gov is the U.S. government's official web portal to all federal, state and local government web resources and services.